Попина лъка Т/Х сензор Measurements

Back to Overview

Timestamp Temperature Humidity
5/4/2026 5:42:09 PM 18,9 C 36.0%
5/4/2026 5:35:06 PM 18,9 C 36.0%
5/4/2026 5:28:05 PM 18,9 C 36.0%
5/4/2026 5:21:03 PM 18,9 C 36.0%
5/4/2026 5:14:01 PM 18,8 C 36.0%
5/4/2026 5:06:58 PM 18,8 C 36.0%
5/4/2026 4:59:55 PM 18,8 C 36.0%
5/4/2026 4:52:52 PM 18,7 C 36.0%
5/4/2026 4:45:48 PM 18,7 C 36.0%
5/4/2026 4:38:44 PM 18,7 C 36.0%
5/4/2026 4:31:41 PM 18,7 C 36.0%
5/4/2026 4:24:39 PM 18,7 C 36.0%
5/4/2026 4:17:37 PM 18,7 C 36.0%
5/4/2026 4:10:34 PM 18,7 C 36.0%
5/4/2026 4:03:33 PM 18,6 C 36.0%
5/4/2026 3:56:29 PM 18,5 C 36.0%
5/4/2026 3:49:26 PM 18,5 C 36.0%
5/4/2026 3:42:22 PM 18,4 C 36.0%
5/4/2026 3:35:20 PM 18,4 C 36.0%
5/4/2026 3:28:18 PM 18,4 C 36.0%
5/4/2026 3:21:15 PM 18,4 C 36.0%
5/4/2026 3:14:13 PM 18,4 C 36.0%
5/4/2026 3:07:09 PM 18,4 C 36.0%
5/4/2026 3:00:06 PM 18,3 C 36.0%
5/4/2026 2:53:05 PM 18,3 C 36.0%
5/4/2026 2:46:03 PM 18,3 C 36.0%
5/4/2026 2:39:01 PM 18,2 C 36.0%
5/4/2026 2:31:57 PM 18,1 C 36.0%
5/4/2026 2:24:55 PM 17,9 C 36.0%
5/4/2026 2:17:52 PM 17,7 C 36.0%
5/4/2026 2:10:50 PM 17,0 C 37.0%
5/4/2026 2:03:48 PM 17,1 C 36.0%
5/4/2026 1:56:45 PM 17,9 C 36.0%
5/4/2026 1:49:41 PM 18,8 C 36.0%
5/4/2026 1:42:37 PM 18,7 C 36.0%
5/4/2026 1:35:34 PM 18,7 C 36.0%
5/4/2026 1:28:32 PM 18,7 C 36.0%
5/4/2026 1:21:28 PM 18,7 C 36.0%
5/4/2026 1:14:25 PM 18,7 C 36.0%
5/4/2026 1:07:22 PM 18,7 C 35.0%
5/4/2026 1:00:19 PM 18,7 C 36.0%
5/4/2026 12:53:17 PM 18,7 C 35.0%
5/4/2026 12:46:13 PM 18,6 C 36.0%
5/4/2026 12:39:12 PM 18,5 C 36.0%
5/4/2026 12:32:08 PM 18,5 C 36.0%
5/4/2026 12:25:05 PM 18,4 C 36.0%
5/4/2026 12:18:02 PM 18,4 C 35.0%
5/4/2026 12:11:01 PM 18,3 C 35.0%
5/4/2026 12:03:58 PM 18,3 C 35.0%
5/4/2026 11:56:54 AM 18,3 C 35.0%
5/4/2026 11:49:53 AM 18,3 C 35.0%
5/4/2026 11:42:50 AM 18,3 C 35.0%
5/4/2026 11:35:47 AM 18,4 C 35.0%
5/4/2026 11:28:43 AM 18,3 C 35.0%
5/4/2026 11:21:41 AM 18,3 C 35.0%
5/4/2026 11:14:38 AM 18,2 C 35.0%
5/4/2026 11:07:36 AM 18,1 C 35.0%
5/4/2026 11:00:35 AM 18,1 C 35.0%
5/4/2026 10:53:33 AM 18,0 C 35.0%
5/4/2026 10:46:30 AM 18,0 C 35.0%
5/4/2026 10:39:26 AM 18,0 C 35.0%
5/4/2026 10:32:23 AM 18,0 C 35.0%
5/4/2026 10:25:19 AM 18,0 C 35.0%
5/4/2026 10:18:16 AM 18,0 C 35.0%
5/4/2026 10:11:15 AM 18,0 C 35.0%
5/4/2026 10:04:11 AM 18,0 C 35.0%
5/4/2026 9:57:07 AM 17,9 C 35.0%
5/4/2026 9:50:04 AM 17,8 C 35.0%
5/4/2026 9:43:01 AM 17,8 C 35.0%
5/4/2026 9:35:57 AM 17,8 C 35.0%
5/4/2026 9:28:54 AM 17,6 C 36.0%
5/4/2026 9:21:51 AM 17,5 C 36.0%
5/4/2026 9:14:48 AM 17,3 C 36.0%
5/4/2026 9:07:45 AM 17,2 C 36.0%
5/4/2026 9:00:41 AM 17,1 C 36.0%
5/4/2026 8:53:40 AM 17,0 C 36.0%
5/4/2026 8:46:36 AM 17,0 C 36.0%
5/4/2026 8:39:31 AM 17,1 C 36.0%
5/4/2026 8:32:28 AM 17,1 C 36.0%
5/4/2026 8:25:26 AM 17,1 C 35.0%
5/4/2026 8:18:22 AM 17,1 C 35.0%
5/4/2026 8:11:18 AM 17,0 C 35.0%
5/4/2026 8:04:16 AM 17,1 C 35.0%
5/4/2026 7:57:13 AM 17,2 C 35.0%
5/4/2026 7:50:12 AM 17,4 C 35.0%
5/4/2026 7:43:09 AM 17,7 C 35.0%
5/4/2026 7:36:05 AM 17,7 C 35.0%
5/4/2026 7:29:02 AM 17,7 C 35.0%
5/4/2026 7:22:00 AM 17,7 C 35.0%
5/4/2026 7:14:55 AM 17,6 C 35.0%
5/4/2026 7:07:54 AM 17,6 C 35.0%
5/4/2026 7:00:50 AM 17,5 C 35.0%
5/4/2026 6:53:45 AM 17,4 C 35.0%
5/4/2026 6:46:43 AM 17,4 C 35.0%
5/4/2026 6:39:41 AM 17,3 C 35.0%
5/4/2026 6:32:39 AM 17,3 C 35.0%
5/4/2026 6:25:36 AM 17,3 C 35.0%
5/4/2026 6:18:32 AM 17,3 C 35.0%
5/4/2026 6:11:30 AM 17,3 C 35.0%
5/4/2026 6:04:29 AM 17,2 C 36.0%
5/4/2026 5:57:26 AM 16,5 C 36.0%
5/4/2026 5:50:22 AM 16,4 C 36.0%
5/4/2026 5:43:20 AM 17,0 C 36.0%
5/4/2026 5:36:16 AM 17,0 C 35.0%
5/4/2026 5:29:15 AM 17,0 C 35.0%
5/4/2026 5:22:13 AM 17,0 C 35.0%
5/4/2026 5:15:09 AM 17,0 C 35.0%
5/4/2026 5:08:05 AM 17,0 C 35.0%
5/4/2026 5:01:03 AM 17,2 C 35.0%
5/4/2026 4:53:59 AM 17,5 C 35.0%
5/4/2026 4:46:55 AM 17,8 C 35.0%
5/4/2026 4:39:51 AM 17,8 C 35.0%
5/4/2026 4:32:50 AM 17,8 C 35.0%
5/4/2026 4:25:48 AM 17,8 C 35.0%
5/4/2026 4:18:45 AM 17,8 C 35.0%
5/4/2026 4:11:41 AM 17,6 C 35.0%
5/4/2026 4:04:39 AM 17,6 C 35.0%
5/4/2026 3:57:36 AM 17,5 C 35.0%
5/4/2026 3:50:33 AM 17,4 C 35.0%
5/4/2026 3:43:29 AM 17,3 C 36.0%
5/4/2026 3:36:27 AM 17,3 C 36.0%
5/4/2026 3:29:25 AM 17,3 C 36.0%
5/4/2026 3:22:22 AM 17,3 C 36.0%
5/4/2026 3:15:18 AM 17,3 C 36.0%
5/4/2026 3:08:14 AM 17,3 C 36.0%
5/4/2026 3:01:10 AM 17,3 C 36.0%
5/4/2026 2:54:07 AM 16,8 C 36.0%
5/4/2026 2:47:02 AM 16,5 C 36.0%
5/4/2026 2:39:59 AM 17,3 C 36.0%
5/4/2026 2:32:54 AM 17,3 C 36.0%
5/4/2026 2:25:52 AM 17,4 C 36.0%
5/4/2026 2:18:48 AM 17,4 C 36.0%
5/4/2026 2:11:45 AM 17,5 C 36.0%
5/4/2026 2:04:43 AM 17,5 C 36.0%
5/4/2026 1:57:39 AM 17,5 C 36.0%
5/4/2026 1:50:36 AM 17,6 C 36.0%
5/4/2026 1:43:32 AM 17,6 C 36.0%
5/4/2026 1:36:28 AM 17,6 C 36.0%
5/4/2026 1:29:26 AM 17,6 C 36.0%
5/4/2026 1:22:23 AM 17,5 C 36.0%
5/4/2026 1:15:21 AM 17,5 C 36.0%
5/4/2026 1:08:17 AM 17,5 C 36.0%
5/4/2026 1:01:16 AM 17,5 C 36.0%
5/4/2026 12:54:13 AM 17,5 C 36.0%
5/4/2026 12:47:09 AM 17,5 C 36.0%
5/4/2026 12:40:05 AM 17,5 C 36.0%
5/4/2026 12:33:03 AM 17,5 C 36.0%
5/4/2026 12:25:59 AM 17,6 C 36.0%
5/4/2026 12:18:55 AM 17,5 C 36.0%
5/4/2026 12:11:51 AM 17,6 C 36.0%
5/4/2026 12:04:48 AM 17,5 C 36.0%